EW7149 Weather Reports


Display with metric or nautical units.
time (UTC)temp
F
wind
direction
speed
MPH
gust
MPH
rain 1hr
in
rain 24hr
in
rain mn
in
humidity
%
barometer
mb
20260903143445 76 155 0.0 4.0 0.00 0.44 0.01 1 1016.4
20260903142946 75 219 1.0 7.0 0.00 0.44 0.01 1 1016.4
20260903142436 75 220 1.0 7.0 0.00 0.44 0.01 1 1016.4
20260903141927 75 141 2.0 10.0 0.00 0.44 0.01 1 1016.3
20260903141409 75 155 1.0 10.0 0.00 0.44 0.01 1 1016.2
20260903140907 75 315 1.0 10.0 0.00 0.44 0.01 1 1016.3
20260903140358 75 148 0.0 10.0 0.00 0.44 0.01 1 1016.0
20260903135353 74 178 0.0 4.0 0.00 0.44 0.01 1 1016.1
20260903134847 74 150 0.0 0.0 0.00 0.44 0.01 1 1016.0
20260903133845 74 148 0.0 0.0 0.00 0.44 0.01 1 1016.0
20260903133352 74 142 0.0 0.0 0.00 0.44 0.01 1 1015.9
20260903132845 74 161 0.0 0.0 0.00 0.44 0.01 1 1015.8
20260903132342 74 143 0.0 0.0 0.00 0.44 0.01 1 1015.4
20260903131832 73 141 0.0 0.0 0.00 0.44 0.01 1 1015.6
20260903131331 73 155 0.0 0.0 0.00 0.44 0.01 1 1015.7
20260903130833 73 140 0.0 0.0 0.00 0.44 0.01 1 1016.1
20260903130331 73 180 0.0 1.0 0.00 0.44 0.01 1 1017.0
20260903125820 73 164 0.0 0.0 0.00 0.44 0.01 1 1016.9
20260903125306 73 164 0.0 0.0 0.00 0.44 0.01 1 1016.6
20260903124802 73 164 0.0 0.0 0.00 0.44 0.01 1 1016.4
20260903124242 73 164 0.0 0.0 0.00 0.44 0.01 1 1017.0
20260903123731 73 158 0.0 1.0 0.00 0.44 0.01 1 1016.9
20260903123224 73 141 0.0 0.0 0.00 0.44 0.01 1 1017.4
20260903122732 73 140 0.0 0.0 0.00 0.44 0.01 1 1017.3
20260903122217 73 140 0.0 0.0 0.00 0.44 0.01 1 1017.2
20260903121204 73 155 0.0 0.0 0.00 0.44 0.01 1 1016.9
20260903115639 73 149 0.0 4.0 0.00 0.44 0.01 1 1016.8
20260903115133 73 148 0.0 0.0 0.00 0.44 0.01 1 1016.7
20260903114614 73 299 0.0 0.0 0.00 0.44 0.01 1 1016.8
20260903114115 73 299 0.0 0.0 0.00 0.44 0.01 1 1017.2
20260903113617 73 299 0.0 0.0 0.00 0.44 0.01 1 1017.5
20260903113103 73 299 0.0 0.0 0.00 0.44 0.01 1 1017.7
20260903112605 73 299 0.0 0.0 0.00 0.44 0.01 1 1017.9
20260903112108 73 299 0.0 0.0 0.00 0.44 0.01 1 1017.9
20260903111605 73 299 0.0 0.0 0.00 0.44 0.01 1 1018.0
20260903111111 73 299 0.0 0.0 0.00 0.44 0.01 1 1017.9
20260903110619 73 299 0.0 0.0 0.00 0.44 0.01 1 1017.9
20260903105545 73 300 0.0 0.0 0.00 0.44 0.01 1 1018.1
20260903105046 73 300 0.0 0.0 0.00 0.43 0.00 1 1018.1
20260903104554 73 300 0.0 0.0 0.00 0.43 0.00 1 1017.9
20260903104040 73 300 0.0 0.0 0.00 0.43 0.00 1 1017.9
20260903103535 73 300 0.0 0.0 0.00 0.43 0.00 1 1017.7
20260903103030 73 300 0.0 0.0 0.00 0.43 0.00 1 1017.6
20260903102515 73 300 0.0 0.0 0.00 0.43 0.00 1 1017.5
20260903102005 73 300 0.0 0.0 0.00 0.43 0.00 1 1017.1
20260903101513 73 300 0.0 0.0 0.00 0.43 0.00 1 1017.0
20260903100504 73 300 0.0 0.0 0.00 0.43 0.00 1 1017.0
20260903100010 73 300 0.0 0.0 0.00 0.43 0.00 1 1016.9
20260903095453 73 300 0.0 0.0 0.00 0.43 0.00 1 1016.8
20260903094950 73 300 0.0 0.0 0.00 0.43 0.00 1 1016.7
20260903094432 73 300 0.0 0.0 0.00 0.43 0.00 1 1016.5
20260903093918 73 300 0.0 0.0 0.00 0.43 0.00 1 1016.6
20260903093421 73 300 0.0 0.0 0.00 0.43 0.00 1 1016.7
20260903092908 72 300 0.0 0.0 0.00 0.43 0.00 1 1016.7
20260903092418 72 300 0.0 0.0 0.00 0.43 0.00 1 1016.7
20260903091928 72 300 0.0 0.0 0.00 0.43 0.00 1 1016.9
20260903091433 72 300 0.0 0.0 0.00 0.43 0.00 1 1017.0
20260903090937 72 300 0.0 0.0 0.00 0.43 0.00 1 1017.1
20260903090423 72 300 0.0 0.0 0.00 0.43 0.00 1 1017.1
20260903085912 72 152 0.0 0.0 0.00 0.43 0.00 1 1017.3
20260903085421 72 150 0.0 0.0 0.00 0.43 0.00 1 1016.2
20260903084928 72 162 0.0 0.0 0.00 0.43 0.00 1 1016.1
20260903084418 72 163 0.0 0.0 0.00 0.43 0.00 1 1016.0
20260903083917 72 163 0.0 0.0 0.00 0.43 0.00 1 1016.2
20260903083425 72 163 0.0 0.0 0.00 0.43 0.00 1 1016.3
20260903082929 72 163 0.0 0.0 0.00 0.43 0.00 1 1016.2
20260903081922 72 163 0.0 0.0 0.00 0.43 0.00 1 1016.0
20260903081426 72 163 0.0 0.0 0.00 0.43 0.00 1 1016.2
20260903080935 72 163 0.0 0.0 0.00 0.43 0.00 1 1016.2
20260903080426 72 163 0.0 0.0 0.00 0.43 0.00 1 1016.3
20260903075430 72 163 0.0 0.0 0.00 0.43 0.00 1 1016.3
20260903074438 72 163 0.0 0.0 0.00 0.43 0.00 1 1016.4
20260903073942 72 163 0.0 0.0 0.00 0.43 0.00 1 1016.3
20260903073435 72 163 0.0 0.0 0.00 0.43 0.00 1 1016.2
20260903072933 72 163 0.0 0.0 0.00 0.43 0.00 1 1016.2
20260903072430 72 163 0.0 0.0 0.00 0.43 0.00 1 1016.2
20260903071936 72 163 0.0 0.0 0.00 0.43 0.00 1 1016.2
20260903070948 72 163 0.0 0.0 0.00 0.43 0.00 1 1016.3
20260903070449 72 163 0.0 0.0 0.00 0.43 0.00 1 1016.4
20260903065936 72 163 0.0 0.0 0.00 0.43 0.00 1 1016.5
20260903065418 72 163 0.0 0.0 0.00 0.43 0.00 1 1016.5
20260903064917 72 163 0.0 0.0 0.00 0.43 0.00 1 1016.3
20260903063923 72 163 0.0 0.0 0.00 0.43 0.00 1 1016.0
20260903063424 72 163 0.0 0.0 0.00 0.43 0.00 1 1016.0
20260903062933 72 163 0.0 0.0 0.00 0.43 0.00 1 1016.0
20260903062430 72 163 0.0 0.0 0.00 0.43 0.00 1 1016.0
20260903061925 72 163 0.0 0.0 0.00 0.43 0.00 1 1015.9
20260903060926 72 163 0.0 0.0 0.00 0.43 0.00 1 1015.7
20260903060428 72 163 0.0 0.0 0.00 0.43 0.00 1 1015.8
20260903055919 72 163 0.0 0.0 0.00 0.43 0.00 1 1015.8
20260903055407 72 163 0.0 0.0 0.00 0.43 0.00 1 1015.9
20260903054855 72 163 0.0 0.0 0.00 0.43 0.00 1 1015.9
20260903054354 72 163 0.0 0.0 0.00 0.43 0.00 1 1015.8
20260903053349 72 159 0.0 0.0 0.00 0.43 0.00 1 1016.0
20260903052838 72 155 0.0 0.0 0.00 0.43 0.00 1 1016.0
20260903052328 72 155 0.0 0.0 0.00 0.43 0.00 1 1016.1
20260903051817 72 155 0.0 0.0 0.00 0.43 0.00 1 1016.3
20260903050749 72 155 0.0 0.0 0.00 0.43 0.00 1 1016.3
20260903050256 72 155 0.0 0.0 0.00 0.43 0.00 1 1016.4
20260903045801 72 155 0.0 0.0 0.00 0.43 0.00 1 1016.4
20260903045300 72 155 0.0 0.0 0.00 0.43 0.00 1 1016.4
20260903044751 72 155 0.0 0.0 0.00 0.43 0.00 1 1016.3
20260903044257 72 155 0.0 0.0 0.00 0.43 0.00 1 1016.2
20260903043801 72 155 0.0 0.0 0.00 0.43 0.00 1 1016.4
20260903043250 72 155 0.0 0.0 0.00 0.43 0.00 1 1016.5
20260903042736 73 155 0.0 0.0 0.00 0.43 0.00 1 1016.4
20260903042232 73 155 0.0 0.0 0.00 0.43 0.00 1 1016.5
20260903041725 73 155 0.0 0.0 0.00 0.43 0.00 1 1016.6
20260903041206 73 155 0.0 0.0 0.00 0.43 0.00 1 1016.7
20260903035706 73 153 0.0 2.0 0.00 0.43 0.00 1 1016.9
20260903035150 73 153 0.0 0.0 0.00 0.43 0.00 1 1017.1
20260903034138 73 153 0.0 0.0 0.00 0.43 0.00 1 1017.5
20260903033632 73 153 0.0 0.0 0.00 0.43 0.00 1 1017.2
20260903033124 73 153 0.0 0.0 0.00 0.43 0.00 1 1017.1
20260903032626 73 153 0.0 0.0 0.00 0.43 0.00 1 1017.0
20260903032115 73 153 0.0 0.0 0.00 0.43 0.00 1 1016.9
20260903031616 73 153 0.0 0.0 0.00 0.43 0.00 1 1016.9
20260903030626 73 153 0.0 0.0 0.00 0.43 0.00 1 1016.9
20260903030120 73 153 0.0 0.0 0.00 0.43 0.00 1 1016.7
20260903025611 73 153 0.0 0.0 0.00 0.43 0.00 1 1016.7
20260903025110 73 153 0.0 0.0 0.00 0.43 0.00 1 1016.7
20260903024103 73 153 0.0 0.0 0.00 0.43 0.00 1 1016.7
20260903023548 73 153 0.0 0.0 0.00 0.43 0.00 1 1016.6
20260903023043 73 153 0.0 0.0 0.00 0.43 0.00 1 1016.7
20260903022533 74 153 0.0 0.0 0.00 0.43 0.00 1 1016.9
20260903022027 74 153 0.0 0.0 0.00 0.43 0.00 1 1017.0
20260903021537 74 153 0.0 0.0 0.00 0.43 0.00 1 1017.0
20260903021030 74 153 0.0 0.0 0.00 0.43 0.00 1 1017.0
20260903020019 74 153 0.0 0.0 0.00 0.43 0.00 1 1017.0
20260903015515 74 153 0.0 0.0 0.00 0.43 0.00 1 1017.0
20260903015024 74 153 0.0 0.0 0.00 0.43 0.00 1 1017.0
20260903014516 74 153 0.0 0.0 0.00 0.43 0.00 1 1016.9
20260903013959 74 153 0.0 0.0 0.00 0.43 0.00 1 1017.0
20260903013456 74 153 0.0 0.0 0.00 0.43 0.00 1 1017.0
20260903012950 73 153 0.0 0.0 0.00 0.43 0.00 1 1017.0
20260903012442 73 153 0.0 0.0 0.00 0.43 0.00 1 1016.9
20260903011938 73 153 0.0 0.0 0.00 0.43 0.00 1 1016.9
20260903011427 73 153 0.0 0.0 0.00 0.43 0.00 1 1016.7
20260903010928 73 153 0.0 0.0 0.00 0.43 0.00 1 1016.7
20260903010416 73 153 0.0 0.0 0.00 0.43 0.00 1 1016.7
20260903005911 73 153 0.0 0.0 0.00 0.43 0.00 1 1016.5
20260903005418 74 153 0.0 0.0 0.00 0.43 0.00 1 1016.3
20260903004859 74 153 0.0 0.0 0.00 0.43 0.00 1 1016.3
20260903004349 73 153 0.0 0.0 0.00 0.43 0.00 1 1016.2
20260903003834 73 153 0.0 0.0 0.00 0.43 0.00 1 1016.3
20260903003326 73 153 0.0 0.0 0.00 0.43 0.00 1 1016.4
20260903002829 73 153 0.0 0.0 0.00 0.43 0.00 1 1016.4
20260903002326 73 153 0.0 0.0 0.00 0.43 0.00 1 1016.5
20260903001304 73 153 0.0 0.0 0.00 0.43 0.00 1 1016.7
20260903000759 73 153 0.0 0.0 0.00 0.43 0.00 1 1016.8
20260903000303 73 153 0.0 0.0 0.00 0.43 0.00 1 1016.7
20260902235256 74 153 0.0 0.0 0.00 0.43 0.00 1 1016.5
20260902234239 74 153 0.0 0.0 0.00 0.43 0.00 1 1016.7
20260902233222 74 153 0.0 0.0 0.00 0.43 0.00 1 1016.7
20260902232727 75 153 0.0 0.0 0.00 0.43 0.00 1 1016.7
20260902232227 75 153 0.0 0.0 0.00 0.43 0.00 1 1016.9
20260902231725 75 153 0.0 0.0 0.00 0.43 0.00 1 1016.7
20260902230730 75 153 0.0 0.0 0.00 0.43 0.00 1 1016.9
20260902230221 75 153 0.0 0.0 0.00 0.43 0.00 1 1016.7
20260902225711 75 153 0.0 0.0 0.00 0.43 0.00 1 1016.5
20260902225209 76 152 0.0 5.0 0.00 0.43 0.00 1 1016.6
20260902224650 76 152 0.0 0.0 0.00 0.43 0.00 1 1016.6
20260902224136 76 152 0.0 0.0 0.00 0.43 0.00 1 1016.5
20260902223635 76 152 0.0 0.0 0.00 0.43 0.00 1 1016.6
20260902223138 76 152 0.0 0.0 0.00 0.43 0.00 1 1016.6
20260902222624 76 151 0.0 1.0 0.00 0.43 0.00 1 1016.7
20260902222106 76 151 0.0 3.0 0.00 0.43 0.00 1 1016.6
20260902221613 76 142 0.0 3.0 0.00 0.43 0.00 1 1016.5
20260902221106 76 155 0.0 0.0 0.00 0.43 0.00 1 1016.6
20260902220558 76 153 0.0 0.0 0.00 0.43 0.00 1 1016.4
20260902220056 77 153 0.0 0.0 0.00 0.43 0.00 1 1016.5
20260902215556 77 153 0.0 0.0 0.00 0.43 0.00 1 1016.5
20260902215037 77 160 0.0 0.0 0.00 0.43 0.00 1 1016.8
20260902214023 78 170 0.0 0.0 0.00 0.43 0.00 1 1017.0
20260902213531 77 156 0.0 0.0 0.00 0.43 0.00 1 1017.1
20260902213019 77 170 0.0 0.0 0.00 0.43 0.00 1 1017.0
20260902212522 77 170 0.0 0.0 0.00 0.43 0.00 1 1017.1
20260902212006 77 170 0.0 0.0 0.00 0.43 0.00 1 1017.2
20260902211447 77 170 0.0 0.0 0.00 0.43 0.00 1 1017.1
20260902210944 77 170 0.0 0.0 0.00 0.43 0.00 1 1017.2
20260902205926 76 170 0.0 0.0 0.00 0.43 0.00 1 1017.1
20260902205416 76 170 0.0 0.0 0.00 0.43 0.00 1 1016.9
20260902204926 76 221 0.0 0.0 0.00 0.43 0.00 1 1016.8
20260902203914 77 173 0.0 1.0 0.00 0.43 0.00 1 1017.1
20260902203420 77 173 0.0 0.0 0.00 0.43 0.00 1 1017.1
20260902202416 77 173 0.0 0.0 0.00 0.43 0.00 1 1017.1
20260902201923 77 173 0.0 0.0 0.00 0.43 0.00 1 1017.2
20260902201410 76 173 0.0 0.0 0.00 0.43 0.00 1 1017.3
20260902200853 76 173 0.0 0.0 0.00 0.43 0.00 1 1017.2
20260902200401 76 173 0.0 0.0 0.00 0.43 0.00 1 1017.0
20260902195859 76 173 0.0 0.0 0.00 0.43 0.00 1 1016.9
20260902195404 76 174 0.0 0.0 0.00 0.43 0.00 1 1016.9
20260902194347 76 178 0.0 0.0 0.00 0.43 0.00 1 1016.7
20260902193851 76 178 0.0 0.0 0.00 0.43 0.00 1 1016.4
20260902193339 76 178 0.0 0.0 0.00 0.43 0.00 1 1016.0
20260902192339 76 178 0.0 0.0 0.00 0.43 0.00 1 1016.1
20260902191840 76 178 0.0 0.0 0.00 0.43 0.00 1 1016.5
20260902190823 76 178 0.0 0.0 0.00 0.43 0.00 1 1016.7
20260902190319 76 178 0.0 0.0 0.00 0.43 0.00 1 1016.7
20260902185801 76 178 0.0 0.0 0.00 0.43 0.00 1 1016.8
20260902185306 76 178 0.0 0.0 0.00 0.43 0.00 1 1017.0
20260902184242 75 178 0.0 0.0 0.00 0.43 0.00 1 1017.4
20260902183751 75 178 0.0 0.0 0.00 0.43 0.00 1 1017.4
20260902183250 75 178 0.0 0.0 0.00 0.43 0.00 1 1017.4
20260902182306 74 178 0.0 0.0 0.00 0.43 0.00 1 1017.2
20260902181812 74 152 0.0 0.0 0.00 0.43 0.00 1 1017.1
20260902181254 73 151 0.0 0.0 0.00 0.43 0.00 1 1017.4
20260902175804 72 167 0.0 0.0 0.00 0.43 0.00 1 1018.3
20260902175247 72 186 0.0 0.0 0.00 0.43 0.00 1 1018.5
20260902171717 73 286 0.0 0.0 0.08 0.42 0.43 1 1019.2
20260902171213 73 286 0.0 0.0 0.27 0.42 0.43 1 1019.4
20260902170705 74 273 0.0 1.0 1.52 0.36 0.38 1 1019.9
20260902170155 76 248 0.0 1.0 1.57 0.26 0.28 1 1020.2
20260902165646 78 24 0.0 9.0 1.55 0.16 0.19 1 1020.5
20260902165129 80 291 0.0 9.0 0.26 0.01 0.02 2 1020.8
20260902164625 83 74 0.0 9.0 0.00 0.00 0.00 15 1020.4
20260902164128 85 88 0.0 1.0 0.00 0.00 0.00 1 1019.6
20260902163616 85 163 0.0 0.0 0.00 0.00 0.00 1 1019.1
20260902163059 86 163 0.0 0.0 0.00 0.00 0.00 1 1018.7
20260902162030 86 163 0.0 0.0 0.00 0.00 0.00 1 1018.2
20260902161538 86 163 0.0 0.0 0.00 0.00 0.00 1 1018.1
20260902161022 86 163 0.0 0.0 0.00 0.00 0.00 3 1018.2
20260902160524 86 160 0.0 0.0 0.00 0.00 0.00 1 1018.1
20260902160009 85 158 0.0 0.0 0.00 0.00 0.00 2 1018.1
20260902155514 85 158 0.0 0.0 0.00 0.00 0.00 1 1018.0
20260902155024 85 158 0.0 0.0 0.00 0.00 0.00 1 1017.9
20260902154516 85 158 0.0 0.0 0.00 0.00 0.00 1 1017.6
20260902154016 85 158 0.0 0.0 0.00 0.00 0.00 2 1017.7
20260902153500 85 158 0.0 0.0 0.00 0.00 0.00 3 1017.6
20260902152943 85 154 0.0 0.0 0.00 0.00 0.00 1 1017.6
20260902152434 85 142 0.0 0.0 0.00 0.00 0.00 4 1017.7
20260902151919 85 144 0.0 0.0 0.00 0.00 0.00 7 1017.6
20260902150859 84 154 0.0 0.0 0.00 0.00 0.00 1 1017.6
20260902150408 84 150 0.0 0.0 0.00 0.00 0.00 1 1017.6
20260902145337 84 134 0.0 0.0 0.00 0.00 0.00 1 1017.6
20260902144832 84 134 0.0 0.0 0.00 0.00 0.00 1 1017.6
20260902144335 83 154 0.0 0.0 0.00 0.00 0.00 1 1017.6